Home > Weather > Tiruchirappalli > Past weeks

Flag for India Past Weather in Tiruchirappalli, Tamil Nadu, India — Yesterday and Last 2 Weeks

Now
84 °F

Passing clouds.


Feels Like: 91 °F
Forecast: 81 / 101 °F
Wind: 7 mph from West

Location: Tiruchchirapalli

Current Time: May 27, 2016 at 4:05:20 AM

Latest Report: May 27, 2016 at 3:30 AM


Visibility: 4 mi

Pressure: 29.68 "Hg

Humidity: 70%

Dew Point: 73 °F

Location of TiruchirappalliLocation

Past Weather in Tiruchirappalli — Graph

°F

Tiruchirappalli Temperature Yesterday

Maximum temperature yesterday: 102 °F (at 1:30 PM)
Minimum temperature yesterday: 84 °F (at 4:30 AM)
Average temperature yesterday: 93 °F

High & Low Weather Summary for the Past Weeks

 TemperatureHumidityPressure
High104 °F (May 24, 3:30 PM)100% (May 16, 8:00 AM)29.83 "Hg (May 16, 8:00 AM)
Low73 °F (May 18, 6:00 AM)33% (May 13, 5:30 PM)29.53 "Hg (May 17, 4:00 PM)
Average88 °F66%29.69 "Hg
* Reported May 12 2:30 AM — May 27 3:00 AM, Tiruchirappalli, Weather by CustomWeather, © 2016

Note: Actual official high and low records may vary slightly from our data, if they occured in-between our weather recording intervals... More about our weather records

Advertising

Tiruchirappalli Weather History for the Previous 24 Hours

Scroll right to see more
 ConditionsComfort  
Time TempWeatherWind HumidityBarometerVisibility
3:00 AM
Fri, May 27
84 °FPassing clouds.12 mph70%29.68 "Hg4 mi
2:30 AM84 °FPassing clouds.12 mph70%29.68 "Hg4 mi
2:00 AM86 °FPassing clouds.9 mph66%29.71 "Hg4 mi
1:30 AM86 °FPassing clouds.8 mph66%29.71 "Hg4 mi
1:00 AM88 °FPassing clouds.9 mph62%29.71 "Hg4 mi
12:30 AM88 °FPassing clouds.9 mph62%29.74 "Hg4 mi
12:00 AM90 °FPassing clouds.9 mph55%29.74 "Hg4 mi
11:30 PM
Thu, May 26
90 °FPassing clouds.9 mph55%29.74 "Hg4 mi
11:00 PM90 °FPassing clouds.8 mph59%29.74 "Hg4 mi
10:30 PM90 °FPassing clouds.3 mph59%29.74 "Hg4 mi
10:00 PM91 °FPassing clouds.No wind56%29.74 "Hg4 mi
9:30 PM91 °FPassing clouds.5 mph52%29.74 "Hg4 mi
9:00 PM93 °FPassing clouds.5 mph49%29.71 "Hg4 mi
8:30 PM93 °FPassing clouds.7 mph49%29.71 "Hg4 mi
8:00 PM93 °FPassing clouds.6 mph47%29.68 "Hg4 mi
7:30 PM95 °FPassing clouds.6 mph47%29.68 "Hg4 mi
7:00 PM97 °FPassing clouds.6 mph44%29.65 "Hg4 mi
6:30 PM97 °FPassing clouds.2 mph47%29.65 "Hg5 mi
6:00 PM100 °FPassing clouds.7 mph40%29.62 "HgN/A
5:30 PM102 °FPassing clouds.8 mph37%29.62 "HgN/A
5:00 PM102 °FPassing clouds.8 mph40%29.62 "HgN/A
4:30 PM102 °FPassing clouds.9 mph40%29.62 "HgN/A
4:00 PM102 °FPassing clouds.13 mph40%29.62 "HgN/A
3:30 PM102 °FPassing clouds.13 mph40%29.62 "HgN/A
3:00 PM102 °FPassing clouds.13 mph40%29.62 "HgN/A
2:30 PM102 °FPassing clouds.9 mph40%29.65 "HgN/A
2:00 PM102 °FPassing clouds.9 mph37%29.65 "HgN/A
1:30 PM102 °FPassing clouds.10 mph37%29.68 "HgN/A
1:00 PM100 °FPassing clouds.9 mph42%29.68 "Hg5 mi
12:30 PM99 °FPassing clouds.12 mph42%29.71 "Hg4 mi
12:00 PM99 °FPassing clouds.9 mph42%29.74 "Hg4 mi
11:30 AM97 °FPassing clouds.9 mph44%29.74 "Hg4 mi
11:00 AM95 °FPassing clouds.10 mph50%29.74 "Hg4 mi
10:30 AM93 °FPassing clouds.12 mph49%29.77 "Hg4 mi
10:00 AM93 °FPassing clouds.13 mph53%29.77 "Hg4 mi
9:30 AM91 °FPassing clouds.9 mph56%29.74 "Hg4 mi
9:00 AM90 °FPassing clouds.10 mph59%29.74 "Hg4 mi
8:30 AM88 °FPassing clouds.12 mph62%29.74 "Hg4 mi
8:00 AM88 °FPassing clouds.14 mph62%29.74 "Hg4 mi
7:30 AM88 °FPassing clouds.14 mph62%29.74 "Hg4 mi
7:00 AM86 °FPassing clouds.16 mph66%29.71 "Hg4 mi
6:30 AM86 °FPassing clouds.9 mph66%29.71 "Hg4 mi
6:00 AM84 °FPassing clouds.17 mph70%29.71 "Hg4 mi
5:30 AM84 °FPassing clouds.6 mph70%29.71 "Hg4 mi
5:00 AM84 °FPassing clouds.12 mph66%29.71 "Hg4 mi
4:30 AM84 °FPassing clouds.12 mph66%29.68 "Hg4 mi
4:00 AM86 °FPassing clouds.14 mph62%29.68 "Hg4 mi
Weather by CustomWeather, © 2016

See weather overviewHow to use our weather pages